Date String (YYYY-MM-DD hh:mm:ss) UTC,Instrument flags,Ambient pressure (hPa),Sample flow (lpm),Bypass flow (lpm),Sample temperature (°C),Ambient temperature (°C),ASC tube jacket temperature (°C),LED temperature (°C),Box temperature (°C),Sample RH (%),Span deviation,Mass concentration (μg/m³),Mass concentration (μg/m³),Mass concentration (μg/m³)
DateTimeUTC,F1_M11,P_M11,Q1_M11,Q2_M11,T1_M11,T2_M11,T3_M11,T4_M11,T5_M11,U1_M11,ZSPAN_M11,X0_M11,X2_M11,X1_M11
2021-09-06 10:00:00,,0830.0,5.01,0.00,29.8,28.6,00.0,39.0,31.5,09.1,0002.6,0014.87,0009.61,0009.14
2021-09-06 10:01:00,,0830.1,5.00,0.00,29.8,28.7,00.0,39.0,31.5,08.9,0003.1,0015.74,0009.62,0009.15
2021-09-06 10:02:00,,0830.1,5.00,0.00,29.9,28.7,00.0,39.0,31.5,08.9,0002.2,0015.87,0009.62,0009.17
2021-09-06 10:03:00,,0830.1,4.98,0.00,29.9,28.8,00.0,39.0,31.6,08.9,0002.2,0016.00,0009.65,0009.19
2021-09-06 10:04:00,,0830.1,5.01,0.00,29.9,28.9,00.0,39.0,31.6,08.8,0002.4,0016.32,0009.70,0009.23
2021-09-06 10:05:00,,0830.1,5.01,0.00,29.9,28.9,00.0,39.0,31.6,08.8,0002.4,0016.35,0009.74,0009.25
2021-09-06 10:06:00,,0830.1,4.98,0.00,29.9,29.0,00.0,39.0,31.7,09.1,0002.4,0016.50,0009.74,0009.26
2021-09-06 10:07:00,,0830.1,5.01,0.00,30.0,29.0,00.0,39.0,31.7,09.0,0001.9,0015.44,0009.70,0009.25
2021-09-06 10:08:00,,0830.1,4.99,0.00,30.0,29.0,00.0,39.0,31.7,08.8,0002.1,0014.96,0009.71,0009.27
2021-09-06 10:09:00,,0830.1,5.01,0.00,30.0,29.0,00.0,39.0,31.8,08.8,0002.6,0014.92,0009.76,0009.30
2021-09-06 10:10:00,,0830.1,5.00,0.00,30.0,29.1,00.0,39.1,31.7,08.9,0003.1,0014.94,0009.79,0009.32
2021-09-06 10:11:00,,0830.0,5.00,0.00,30.1,29.1,00.0,39.1,31.8,09.0,0002.8,0014.98,0009.83,0009.36
2021-09-06 10:12:00,,0830.0,5.00,0.00,30.1,29.1,00.0,39.1,31.8,09.1,0002.8,0014.14,0009.87,0009.37
2021-09-06 10:13:00,,0830.1,5.00,0.00,30.1,29.2,00.0,39.1,31.8,09.2,0003.3,0014.10,0009.90,0009.38
2021-09-06 10:14:00,,0830.1,5.00,0.00,30.1,29.2,00.0,39.1,31.9,09.2,0003.9,0014.30,0009.88,0009.35
2021-09-06 10:15:00,,0830.1,5.01,0.00,30.1,29.2,00.0,39.1,31.9,09.0,0003.7,0014.16,0009.85,0009.33
2021-09-06 10:16:00,,0830.1,4.98,0.00,30.1,29.2,00.0,39.2,31.9,09.0,0003.7,0014.41,0009.85,0009.32
2021-09-06 10:17:00,,0830.1,5.01,0.00,30.2,29.2,00.0,39.2,31.9,08.9,0003.9,0015.09,0009.86,0009.33
2021-09-06 10:18:00,,0830.1,5.00,0.00,30.2,29.2,00.0,39.2,31.9,08.9,0003.9,0015.00,0009.86,0009.32
2021-09-06 10:19:00,,0830.1,4.99,0.00,30.2,29.2,00.0,39.2,31.9,08.9,0003.9,0015.00,0009.87,0009.32
2021-09-06 10:20:00,,0830.0,5.02,0.00,30.2,29.3,00.0,39.2,32.0,08.8,0003.7,0015.00,0009.88,0009.33
2021-09-06 10:21:00,,0830.0,4.99,0.00,30.2,29.3,00.0,39.2,32.0,08.9,0003.8,0014.93,0009.88,0009.32
2021-09-06 10:22:00,,0830.0,5.01,0.00,30.2,29.3,00.0,39.3,32.0,08.9,0004.1,0014.99,0009.88,0009.31
2021-09-06 10:23:00,,0830.0,5.01,0.00,30.3,29.3,00.0,39.3,32.0,08.9,0004.2,0014.98,0009.87,0009.32
2021-09-06 10:24:00,,0830.0,5.00,0.00,30.3,29.3,00.0,39.3,32.0,09.0,0004.0,0015.19,0009.87,0009.33
2021-09-06 10:25:00,,0830.0,5.00,0.00,30.3,29.4,00.0,39.3,32.0,09.1,0003.9,0015.10,0009.90,0009.35
2021-09-06 10:26:00,,0829.9,5.00,0.00,30.3,29.4,00.0,39.3,32.0,09.1,0003.5,0014.84,0009.90,0009.36
2021-09-06 10:27:00,,0830.0,5.01,0.00,30.3,29.4,00.0,39.3,32.0,09.0,0002.9,0014.64,0009.87,0009.35
2021-09-06 10:28:00,,0830.0,5.01,0.00,30.3,29.4,00.0,39.4,32.0,08.9,0002.6,0013.80,0009.88,0009.38
2021-09-06 10:29:00,,0830.0,5.00,0.00,30.4,29.4,00.0,39.4,32.1,08.9,0002.9,0013.82,0009.91,0009.41
2021-09-06 10:30:00,,0830.0,4.99,0.00,30.4,29.4,00.0,39.4,32.1,08.7,0002.5,0013.86,0009.94,0009.45
2021-09-06 10:31:00,,0830.0,4.99,0.00,30.4,29.4,00.0,39.4,32.1,08.7,0002.2,0013.86,0009.96,0009.48
2021-09-06 10:32:00,,0829.9,5.00,0.00,30.4,29.5,00.0,39.4,32.1,08.6,0001.7,0013.96,0010.03,0009.54
2021-09-06 10:33:00,,0829.9,5.01,0.00,30.4,29.5,00.0,39.4,32.1,08.6,0001.2,0013.96,0010.04,0009.58
2021-09-06 10:34:00,,0829.9,4.99,0.00,30.4,29.5,00.0,39.4,32.1,08.6,0001.3,0013.99,0010.08,0009.60
2021-09-06 10:35:00,,0830.0,5.00,0.00,30.4,29.4,00.0,39.5,32.1,08.5,0001.1,0013.84,0010.11,0009.63
2021-09-06 10:36:00,,0829.9,5.00,0.00,30.3,27.6,00.0,39.4,31.6,08.7,0000.5,0013.88,0010.13,0009.67
2021-09-06 10:37:00,,0829.9,5.00,0.00,30.1,26.4,00.0,39.4,31.3,08.9,0000.3,0014.14,0010.20,0009.72
2021-09-06 10:38:00,,0829.8,5.01,0.00,30.0,26.5,00.0,39.3,31.3,08.9,0001.1,0014.58,0010.28,0009.77
2021-09-06 10:39:00,,0829.8,5.00,0.00,29.9,26.9,00.0,39.3,31.3,08.8,0001.7,0014.64,0010.33,0009.81
2021-09-06 10:40:00,,0829.9,5.00,0.00,29.9,27.3,00.0,39.2,31.3,08.9,0001.7,0015.60,0010.35,0009.84
2021-09-06 10:41:00,,0829.9,4.99,0.00,29.9,27.6,00.0,39.2,31.4,08.9,0002.1,0015.88,0010.40,0009.87
2021-09-06 10:42:00,,0829.9,5.01,0.00,29.9,27.9,00.0,39.2,31.4,08.8,0002.7,0016.79,0010.47,0009.91
2021-09-06 10:43:00,,0829.9,4.99,0.00,29.9,28.1,00.0,39.2,31.5,08.8,0002.8,0017.03,0010.51,0009.93
2021-09-06 10:44:00,,0829.9,5.01,0.00,29.9,28.3,00.0,39.1,31.5,08.8,0003.0,0017.18,0010.58,0009.98
2021-09-06 10:45:00,,0829.9,5.00,0.00,29.9,28.4,00.0,39.1,31.5,08.8,0003.0,0017.33,0010.61,0010.03
2021-09-06 10:46:00,,0829.9,5.00,0.00,29.9,28.5,00.0,39.1,31.5,08.8,0003.2,0017.44,0010.67,0010.08
2021-09-06 10:47:00,,0829.9,4.99,0.00,29.9,28.6,00.0,39.1,31.6,08.8,0002.9,0017.39,0010.74,0010.12
2021-09-06 10:48:00,,0829.9,5.00,0.00,29.9,28.6,00.0,39.1,31.6,08.7,0003.0,0017.27,0010.76,0010.18
2021-09-06 10:49:00,,0829.9,5.00,0.00,29.9,28.7,00.0,39.1,31.6,08.9,0002.8,0016.93,0010.74,0010.21
2021-09-06 10:50:00,,0829.8,5.01,0.00,30.0,28.8,00.0,39.1,31.7,09.0,0002.5,0016.77,0010.73,0010.22
2021-09-06 10:51:00,,0829.9,4.99,0.00,30.0,28.8,00.0,39.1,31.7,09.5,0002.5,0016.01,0010.80,0010.26
2021-09-06 10:52:00,,0829.9,5.00,0.00,30.0,28.9,00.0,39.1,31.7,08.9,0002.9,0015.85,0010.84,0010.31
2021-09-06 10:53:00,,0830.0,5.00,0.00,30.0,28.9,00.0,39.1,31.7,09.0,0002.6,0015.73,0010.88,0010.34
2021-09-06 10:54:00,,0830.0,4.99,0.00,30.0,29.0,00.0,39.1,31.7,09.2,0002.3,0016.56,0010.90,0010.38
2021-09-06 10:55:00,,0830.0,5.00,0.00,30.0,29.0,00.0,39.1,31.7,09.0,0002.0,0016.67,0010.94,0010.41
2021-09-06 10:56:00,,0830.0,4.99,0.00,30.1,29.0,00.0,39.1,31.7,08.9,0001.6,0016.66,0011.02,0010.47
2021-09-06 10:57:00,,0830.0,5.00,0.00,30.1,29.0,00.0,39.2,31.8,08.7,0001.0,0016.69,0011.06,0010.54
2021-09-06 10:58:00,,0830.0,5.01,0.00,30.1,29.1,00.0,39.2,31.8,08.5,0001.1,0016.67,0011.11,0010.61
2021-09-06 10:59:00,,0830.0,5.01,0.00,30.1,29.0,00.0,39.2,31.8,08.6,0001.0,0017.06,0011.22,0010.67
